Погода в Ялисосе

Греция     36°25′00″N   28°09′15″E
темп.,
°C
ветер,
м/с
пор.,
м/с
влажн.,
%
обл.,
%
осадки,
мм/ч
давл.,
гПа
погр.,
м
16 мая, вс
вс1600:00+20з456942 0.0 1010237
03:00+20зсз67710 0.0 1009418
06:00+20зсз66690 0.0 1008411
09:00+20зсз55685 0.0 1009456
12:00+20з87745 0.0 1009417
15:00+20зсз99720 0.0 1009418
18:00+20з1010765 0.0 1008439
21:00+20зсз810775 0.0 1009647
17 мая, пн
пн1700:00+20зсз9117497 0.0 1010714
03:00+20сз911714 0.0 1009664
06:00+19зсз910734 0.0 1009456
09:00+20сз67685 0.0 1011355
12:00+21з79675 0.0 1011299
15:00+20з1111715 0.0 1011280
18:00+20з1112700 0.0 1010329
21:00+20з81077100 0.0 1011273
18 мая, вт
вт1800:00+20з78800 0.0 1012284
03:00+20зсз56800 0.0 1011274
06:00+19з55800 0.0 1011276
09:00+20зсз56783 0.0 1013338
12:00+21зсз45775 0.0 1013217
15:00+22ююв23705 0.0 1013222
18:00+22ююв12715 0.0 1013198
21:00+21сз33760 0.0 1013111
19 мая, ср
ср1900:00+21сз34780 0.0 101373
03:00+21зсз22770 0.0 101251
06:00+20з22730 0.0 101274
09:00+21юв11710 0.0 101376
12:00+21юв44760 0.0 1013164
15:00+22юв67740 0.0 1012163
18:00+22ююв557912 0.0 1011151
21:00+21з127867 0.0 101118
20 мая, чт
чт2000:00+21ссв11820 0.0 101115
03:00+21вюв23830 0.0 1010132
06:00+20юв33840 0.0 1009215
09:00+20вюв22810 0.0 1010247
12:00+20сз22790 0.0 1010213
15:00+21зсз44770 0.0 1010203
18:00+21з44790 0.0 1010302
21:00+20з56840 0.0 1011288